Home   Weather   Pokhara   Past weeks

Flag for Nepal Past Weather in Pokhara, Nepal — Yesterday and Last 2 Weeks

75 °F

Passing clouds.

Feels Like: 78 °F
Forecast: 57 / 78 °F
Wind: 7 mph from Southwest

Location: Kathmandu Airport

Current Time: Oct 26, 2016 at 3:10:45 PM

Latest Report: Oct 26, 2016 at 2:35 PM

Visibility: 5 mi

Pressure: 30.07 "Hg (27.28 "Hg at 847m altitude)

Humidity: 47%

Dew Point: 54 °F

Location of PokharaLocation

Past Weather in Pokhara — Graph


Pokhara Temperature Yesterday

Maximum temperature yesterday: 79 °F (at 12:35 PM)
Minimum temperature yesterday: 55 °F (at 5:35 AM)
Average temperature yesterday: 67 °F

High & Low Weather Summary for the Past Weeks

High81 °F (Oct 12, 2:05 PM)100% (Oct 13, 4:35 AM)30.15 "Hg (Oct 13, 4:35 AM)
Low55 °F (Oct 21, 5:35 AM)28% (Oct 11, 11:35 PM)29.86 "Hg (Oct 11, 2:35 PM)
Average68 °F75%30.00 "Hg
* Reported Oct 11 2:35 PM — Oct 26 2:05 PM, Pokhara, Weather by CustomWeather, © 2016

Note: Actual official high and low records may vary slightly from our data, if they occured in-between our weather recording intervals... More about our weather records


Pokhara Weather History for the Previous 24 Hours

Scroll right to see more
Time TempWeatherWind HumidityBarometerVisibility
2:05 PM
Wed, Oct 26
77 °FScattered clouds.7 mph42%30.07 "Hg5 mi
1:35 PM75 °FPassing clouds.5 mph41%30.07 "Hg5 mi
1:05 PM75 °FPassing clouds.5 mph44%30.09 "Hg5 mi
11:35 AM75 °FPassing clouds.5 mph47%30.09 "Hg5 mi
11:05 AM73 °FPassing clouds.3 mph47%30.12 "Hg4 mi
10:35 AM72 °FPassing clouds.3 mph61%30.12 "Hg4 mi
10:05 AM70 °FPassing clouds.2 mph64%30.12 "Hg4 mi
9:35 AM68 °FPassing clouds.3 mph64%30.12 "Hg4 mi
9:05 AM64 °FPassing clouds.2 mph73%30.12 "Hg4 mi
8:35 AM63 °FPassing clouds.2 mph77%30.12 "Hg4 mi
8:05 AM61 °FPassing clouds.No wind83%30.09 "Hg4 mi
7:35 AM59 °FPassing clouds.2 mph82%30.09 "Hg4 mi
7:05 AM57 °FPassing clouds.2 mph88%30.07 "Hg4 mi
6:35 AM55 °FPassing clouds.2 mph94%30.07 "Hg4 mi
6:05 AM55 °FFog.No wind94%30.04 "Hg3 mi
5:35 AM55 °FPassing clouds.No wind94%30.01 "Hg4 mi
4:35 AM55 °FPassing clouds.No wind94%30.01 "Hg4 mi
3:35 AM57 °FPassing clouds.No wind88%30.01 "Hg4 mi
2:35 AM57 °FPassing clouds.No wind88%30.01 "Hg4 mi
1:35 AM59 °FPassing clouds.No wind82%30.01 "Hg4 mi
12:35 AM59 °FPassing clouds.No wind77%30.04 "Hg4 mi
12:05 AM61 °FPassing clouds.No wind72%30.04 "Hg4 mi
11:35 PM
Tue, Oct 25
61 °FPassing clouds.No wind77%30.04 "Hg4 mi
11:05 PM63 °FPassing clouds.No wind73%30.04 "Hg4 mi
10:35 PM63 °FPassing clouds.No wind64%30.04 "Hg4 mi
10:05 PM63 °FPassing clouds.No wind64%30.04 "Hg4 mi
9:35 PM63 °FPassing clouds.3 mph64%30.04 "Hg4 mi
9:05 PM64 °FPassing clouds.3 mph64%30.04 "Hg4 mi
8:35 PM64 °FPassing clouds.3 mph60%30.04 "Hg4 mi
8:05 PM64 °FPassing clouds.5 mph60%30.01 "Hg4 mi
7:35 PM66 °FPassing clouds.5 mph56%30.01 "Hg4 mi
7:05 PM66 °FPassing clouds.6 mph60%29.98 "Hg4 mi
6:35 PM68 °FPassing clouds.5 mph64%29.98 "Hg4 mi
6:05 PM70 °FPassing clouds.6 mph64%29.95 "Hg5 mi
5:35 PM70 °FPassing clouds.7 mph57%29.95 "Hg5 mi
5:05 PM72 °FPassing clouds.7 mph57%29.95 "HgN/A
4:35 PM72 °FPassing clouds.8 mph57%29.95 "HgN/A
4:05 PM73 °FPassing clouds.7 mph50%29.92 "HgN/A
3:35 PM75 °FPassing clouds.10 mph39%29.92 "HgN/A
3:05 PM77 °FPassing clouds.10 mph36%29.92 "HgN/A
Weather by CustomWeather, © 2016

See weather overviewHow to use our weather pages